Strona główna
METAR-TAF:

METAR-TAF

Lotnisko :

Pocono Mountains Municipal Airport

Mount Pocono, Pensylwania, Stany Zjednoczone

Szerokość geograficzna: 41-08-20N, Długość geograficzna: 075-23-46W, wysokość: 584 m

Aktualna obserwacja pogody

Raport powstał 59 minut temu, godzina 08:53 UTC
Wiatr 5 kt od zachód
Temperatura 1°C
Wilgotność 80%
Ciśnienie 1021 hPa
Widzialność: 16.1 km
Zachmurzenie całkowite na wysokości 3500 ft

METAR: KMPO 220853Z AUTO 26005KT 10SM OVC035 01/M02 A3014 RMK AO2 SLP223 T00111017 51005

czas: 05:52 (09:52 UTC)


TAF: brakujący

Obserwacja i prognoza pogody dla ponad 4000 lotnisk (raport METAR i TAF).

Dostępne stacje oznaczono żółtymi i czerwonymi punktami na mapie.

Najedź kursorem aby zobaczyć nazwę stacji.

Kliknij aby zobaczyć obserwacje i prognozy pogody.

Aby zmienić mapę: kliknij na zielony przycisk z czarnym krzyżykiem, aby powiększyć; na zielony przycisk z myślnikiem, aby pomniejszyć; na zielone strzałki, aby przejść do map sąsiednich.


METAR-TAF: